Погода в Янгоне

Мьянма     16°54′28″N   96°07′40″E
темп.,
°C
ветер,
м/с
пор.,
м/с
влажн.,
%
обл.,
%
осадки,
мм/ч
давл.,
гПа
погр.,
м
29 июля, чт
чт2900:30+26юз3790100 2.3 1006252
03:30+26юз399196 0.1 1004302
06:30+26ююз289387 1.3 1005280
09:30+30зюз5774100 4.3 1006889
12:30+32зюз566389 6.4 10051493
15:30+31зюз576673 3.7 10031107
18:30+28юз487836 5.6 1004227
21:30+26зюз498699 2.5 1008288
30 июля, пт
пт3000:30+26юз379099 2.6 1007278
03:30+25юз269266 0.1 1006238
06:30+26юз2792100 0.3 1007269
09:30+29зюз577553 3.1 1008889
12:30+31зюз5667100 5.8 10071225
15:30+30юз5768100 3.8 10051135
18:30+27зюз3783100 6.6 1005212
21:30+27юз4887100 2.2 1008269
31 июля, сб
сб3100:30+26юз4989100 5.1 1007340
03:30+25зюз41091100 4.7 1005399
06:30+25юз3991100 7.6 1007415
09:30+26юз3789100 1.1 1008396
12:30+29зюз5773100 3.8 1006983
15:30+28зюз6879100 2.4 1005841
18:30+26юз5987100 4.7 1005425
21:30+25юз4889100 0.0 1008366
1 августа, вс
вс100:30+25юз3993100 0.2 1007375
03:30+25юз399794 2.8 1005352
06:30+25зюз3991100 3.5 1006368
09:30+27зюз388698 1.8 1007476
12:30+29з696969 3.9 1005974
15:30+30з676697 0.3 10031156
18:30+27зюз4881100 1.4 1004285
21:30+26юз3786100 0.0 1006251
2 августа, пн
пн200:30+25юз3890100 0.1 1005290
03:30+25юз379297 0.0 1004254
06:30+26юз3790100 0.2 1005324
09:30+28юз577575 1.0 1006791
12:30+29зюз687388 3.8 1005992
15:30+27зюз5982100 0.8 1004722
18:30+26зюз51189100 1.6 1005568
21:30+25юз4991100 0.0 1007462